Time,TemperatureF,DewpointF,PressureIn,WindDirection,WindDirectionDegrees,WindSpeedMPH,WindSpeedGustMPH,Humidity,HourlyPrecipIn,Conditions,Clouds,dailyrainin,SoftwareType,DateUTC
2013-02-13 00:02:00,27.0,22.0,29.86,NNW,333,0.0,0.0,82,0.00,,,0.00,,2013-02-13 05:02:00,
2013-02-13 00:12:00,27.0,22.0,29.86,NNW,333,0.0,0.0,82,0.00,,,0.00,,2013-02-13 05:12:00,
2013-02-13 00:22:00,27.0,23.0,29.86,NNW,331,0.0,0.0,83,0.00,,,0.00,,2013-02-13 05:22:00,
2013-02-13 00:32:00,27.0,23.0,29.86,NNW,331,0.0,0.0,83,0.00,,,0.00,,2013-02-13 05:32:00,
2013-02-13 00:42:00,27.0,23.0,29.86,NNW,331,0.0,0.0,83,0.00,,,0.00,,2013-02-13 05:42:00,
2013-02-13 00:52:00,27.0,22.0,29.86,NNW,331,0.0,0.0,82,0.00,,,0.00,,2013-02-13 05:52:00,
2013-02-13 01:02:00,27.0,23.0,29.85,NNW,331,0.0,0.0,83,0.00,,,0.00,,2013-02-13 06:02:00,
2013-02-13 01:11:00,27.0,23.0,29.85,NNW,331,0.0,0.0,83,0.00,,,0.00,,2013-02-13 06:11:00,
2013-02-13 01:22:00,27.0,23.0,29.85,NNW,331,0.0,0.0,83,0.00,,,0.00,,2013-02-13 06:22:00,
2013-02-13 01:32:00,27.0,23.0,29.84,NNW,331,0.0,0.0,83,0.00,,,0.00,,2013-02-13 06:32:00,
2013-02-13 01:42:00,27.0,23.0,29.84,NNW,331,0.0,0.0,83,0.00,,,0.00,,2013-02-13 06:42:00,
2013-02-13 01:52:00,27.0,22.0,29.83,NNW,331,0.0,0.0,82,0.00,,,0.00,,2013-02-13 06:52:00,
2013-02-13 02:02:00,28.0,23.0,29.82,NNW,331,0.0,0.0,81,0.00,,,0.00,,2013-02-13 07:02:00,
2013-02-13 02:11:00,27.0,22.0,29.82,NNW,331,0.0,0.0,80,0.00,,,0.00,,2013-02-13 07:11:00,
2013-02-13 02:22:00,27.0,22.0,29.82,NNW,331,0.0,0.0,80,0.00,,,0.00,,2013-02-13 07:22:00,
2013-02-13 02:32:00,27.0,22.0,29.82,NNW,331,0.0,0.0,80,0.00,,,0.00,,2013-02-13 07:32:00,
2013-02-13 02:42:00,27.0,22.0,29.82,NNW,331,0.0,0.0,80,0.00,,,0.00,,2013-02-13 07:42:00,
2013-02-13 02:51:00,27.0,22.0,29.82,NNW,331,0.0,0.0,80,0.00,,,0.00,,2013-02-13 07:51:00,
2013-02-13 03:01:00,27.0,21.0,29.82,NNW,331,0.0,0.0,79,0.00,,,0.00,,2013-02-13 08:01:00,
2013-02-13 03:11:00,27.0,21.0,29.82,NNW,331,0.0,0.0,79,0.00,,,0.00,,2013-02-13 08:11:00,
2013-02-13 03:21:00,27.0,21.0,29.82,NNW,331,0.0,0.0,79,0.00,,,0.00,,2013-02-13 08:21:00,
2013-02-13 03:32:00,27.0,21.0,29.80,NNW,331,0.0,0.0,79,0.00,,,0.00,,2013-02-13 08:32:00,
2013-02-13 03:43:00,27.0,21.0,29.80,NNW,331,0.0,0.0,79,0.00,,,0.00,,2013-02-13 08:43:00,
2013-02-13 03:52:00,27.0,21.0,29.80,NNW,331,0.0,0.0,78,0.00,,,0.00,,2013-02-13 08:52:00,
2013-02-13 04:02:00,27.0,21.0,29.79,NNW,331,0.0,0.0,79,0.00,,,0.00,,2013-02-13 09:02:00,
2013-02-13 04:11:00,27.0,21.0,29.79,NNW,331,0.0,0.0,79,0.00,,,0.00,,2013-02-13 09:11:00,
2013-02-13 04:21:00,28.0,22.0,29.79,NNW,331,0.0,0.0,78,0.00,,,0.00,,2013-02-13 09:21:00,
2013-02-13 04:32:00,30.0,24.0,29.79,NNW,329,0.0,3.0,77,0.00,,,0.00,,2013-02-13 09:32:00,
2013-02-13 04:42:00,31.0,23.0,29.79,NW,305,3.0,5.0,72,0.00,,,0.00,,2013-02-13 09:42:00,
2013-02-13 04:52:00,31.0,23.0,29.79,NW,305,3.0,5.0,72,0.00,,,0.00,,2013-02-13 09:52:00,
2013-02-13 05:01:00,33.0,24.0,29.79,NW,305,3.0,5.0,69,0.00,,,0.00,,2013-02-13 10:01:00,
2013-02-13 05:11:00,32.0,23.0,29.79,NW,309,0.0,4.0,70,0.00,,,0.00,,2013-02-13 10:11:00,
2013-02-13 05:21:00,32.0,23.0,29.79,NW,309,0.0,4.0,70,0.00,,,0.00,,2013-02-13 10:21:00,
2013-02-13 05:32:00,31.0,23.0,29.79,NW,309,0.0,0.0,72,0.00,,,0.00,,2013-02-13 10:32:00,
2013-02-13 05:42:00,31.0,23.0,29.79,WNW,289,2.0,2.0,73,0.00,,,0.00,,2013-02-13 10:42:00,
2013-02-13 05:51:00,31.0,23.0,29.79,WNW,289,2.0,2.0,73,0.00,,,0.00,,2013-02-13 10:51:00,
2013-02-13 06:01:00,33.0,24.0,29.77,West,267,3.0,5.0,69,0.00,,,0.00,,2013-02-13 11:01:00,
2013-02-13 06:11:00,33.0,24.0,29.77,West,267,3.0,5.0,69,0.00,,,0.00,,2013-02-13 11:11:00,
2013-02-13 06:22:00,34.0,25.0,29.77,NW,312,0.0,4.0,68,0.00,,,0.00,,2013-02-13 11:22:00,
2013-02-13 06:32:00,34.0,24.0,29.76,West,279,3.0,6.0,67,0.00,,,0.00,,2013-02-13 11:32:00,
2013-02-13 06:42:00,34.0,24.0,29.76,West,267,3.0,5.0,67,0.00,,,0.00,,2013-02-13 11:42:00,
2013-02-13 06:52:00,34.0,24.0,29.76,West,267,3.0,5.0,67,0.00,,,0.00,,2013-02-13 11:52:00,
2013-02-13 07:02:00,33.0,24.0,29.74,WNW,300,2.0,4.0,68,0.00,,,0.00,,2013-02-13 12:02:00,
2013-02-13 07:11:00,33.0,24.0,29.74,WNW,300,2.0,4.0,68,0.00,,,0.00,,2013-02-13 12:11:00,
2013-02-13 07:22:00,32.0,23.0,29.74,WNW,302,0.0,4.0,70,0.00,,,0.00,,2013-02-13 12:22:00,
2013-02-13 07:32:00,31.0,24.0,29.74,WNW,302,0.0,0.0,74,0.00,,,0.00,,2013-02-13 12:32:00,
2013-02-13 07:42:00,31.0,24.0,29.74,WNW,302,0.0,0.0,74,0.00,,,0.00,,2013-02-13 12:42:00,
2013-02-13 07:52:00,30.0,23.0,29.74,ENE,75,0.0,3.0,74,0.00,,,0.00,,2013-02-13 12:52:00,
2013-02-13 08:02:00,29.0,23.0,29.73,ENE,75,0.0,0.0,78,0.00,,,0.00,,2013-02-13 13:02:00,
2013-02-13 08:11:00,29.0,23.0,29.73,ENE,75,0.0,0.0,78,0.00,,,0.00,,2013-02-13 13:11:00,
2013-02-13 08:21:00,29.0,23.0,29.73,ENE,75,0.0,0.0,79,0.00,,,0.00,,2013-02-13 13:21:00,
2013-02-13 08:32:00,30.0,24.0,29.73,ENE,75,0.0,0.0,77,0.00,,,0.00,,2013-02-13 13:32:00,
2013-02-13 08:42:00,30.0,24.0,29.72,ENE,75,0.0,0.0,77,0.00,,,0.00,,2013-02-13 13:42:00,
2013-02-13 08:51:00,30.0,24.0,29.72,ENE,75,0.0,0.0,77,0.00,,,0.00,,2013-02-13 13:51:00,
2013-02-13 09:01:00,30.0,23.0,29.72,ENE,75,0.0,0.0,76,0.00,,,0.00,,2013-02-13 14:01:00,
2013-02-13 09:11:00,30.0,23.0,29.72,ENE,75,0.0,0.0,76,0.00,,,0.00,,2013-02-13 14:11:00,
2013-02-13 09:21:00,31.0,24.0,29.71,ENE,75,0.0,0.0,76,0.00,,,0.00,,2013-02-13 14:21:00,
2013-02-13 09:32:00,33.0,24.0,29.71,East,84,3.0,4.0,70,0.00,,,0.00,,2013-02-13 14:32:00,
2013-02-13 09:42:00,32.0,24.0,29.70,ESE,123,6.0,6.0,71,0.00,,,0.00,,2013-02-13 14:42:00,
2013-02-13 09:52:00,32.0,24.0,29.70,ESE,123,6.0,6.0,71,0.00,,,0.00,,2013-02-13 14:52:00,
2013-02-13 10:02:00,33.0,25.0,29.72,SE,138,3.0,7.0,71,0.00,,,0.00,,2013-02-13 15:02:00,
2013-02-13 10:11:00,33.0,25.0,29.71,ESE,119,0.0,3.0,71,0.00,,,0.00,,2013-02-13 15:11:00,
2013-02-13 10:21:00,33.0,25.0,29.71,ESE,119,0.0,3.0,71,0.00,,,0.00,,2013-02-13 15:21:00,
2013-02-13 10:32:00,34.0,25.0,29.70,ENE,72,0.0,4.0,69,0.00,,,0.00,,2013-02-13 15:32:00,
2013-02-13 10:42:00,34.0,25.0,29.70,ENE,72,0.0,4.0,69,0.00,,,0.00,,2013-02-13 15:42:00,
2013-02-13 10:52:00,34.0,25.0,29.70,SE,128,3.0,8.0,70,0.00,,,0.00,,2013-02-13 15:52:00,
2013-02-13 11:02:00,35.0,26.0,29.68,SE,128,0.0,5.0,68,0.00,,,0.00,,2013-02-13 16:02:00,
2013-02-13 11:11:00,35.0,26.0,29.68,SE,128,0.0,5.0,68,0.00,,,0.00,,2013-02-13 16:11:00,
2013-02-13 11:21:00,35.0,26.0,29.68,SE,128,0.0,5.0,68,0.00,,,0.00,,2013-02-13 16:21:00,
2013-02-13 11:32:00,37.0,27.0,29.68,ESE,102,3.0,12.0,66,0.00,,,0.00,,2013-02-13 16:32:00,
2013-02-13 11:42:00,37.0,27.0,29.68,ESE,102,3.0,12.0,66,0.00,,,0.00,,2013-02-13 16:42:00,
2013-02-13 11:52:00,37.0,27.0,29.67,SE,125,2.0,12.0,67,0.00,,,0.00,,2013-02-13 16:52:00,
2013-02-13 12:02:00,36.0,26.0,29.68,SE,124,2.0,7.0,67,0.00,,,0.00,,2013-02-13 17:02:00,
2013-02-13 12:11:00,36.0,26.0,29.68,SE,124,2.0,7.0,67,0.00,,,0.00,,2013-02-13 17:11:00,
2013-02-13 12:21:00,36.0,26.0,29.68,SE,146,2.0,7.0,67,0.00,,,0.00,,2013-02-13 17:21:00,
2013-02-13 12:32:00,36.0,26.0,29.67,East,88,0.0,7.0,66,0.00,,,0.00,,2013-02-13 17:32:00,
2013-02-13 12:42:00,36.0,26.0,29.67,East,88,0.0,7.0,66,0.00,,,0.00,,2013-02-13 17:42:00,
2013-02-13 12:52:00,36.0,26.0,29.66,East,94,1.0,7.0,66,0.00,,,0.00,,2013-02-13 17:52:00,
2013-02-13 13:02:00,36.0,26.0,29.65,SE,134,3.0,9.0,66,0.00,,,0.00,,2013-02-13 18:02:00,
2013-02-13 13:11:00,36.0,26.0,29.65,SE,134,3.0,9.0,66,0.00,,,0.00,,2013-02-13 18:11:00,
2013-02-13 13:23:00,37.0,27.0,29.64,ESE,121,3.0,7.0,66,0.00,,,0.00,,2013-02-13 18:23:00,
2013-02-13 13:32:00,37.0,26.0,29.63,ESE,103,6.0,10.0,65,0.00,,,0.00,,2013-02-13 18:32:00,
2013-02-13 13:42:00,37.0,26.0,29.63,ESE,103,6.0,10.0,65,0.00,,,0.00,,2013-02-13 18:42:00,
2013-02-13 13:52:00,37.0,26.0,29.63,ESE,103,6.0,10.0,65,0.00,,,0.00,,2013-02-13 18:52:00,
2013-02-13 14:01:00,36.0,25.0,29.62,SE,135,1.0,10.0,65,0.00,,,0.00,,2013-02-13 19:01:00,
2013-02-13 14:11:00,36.0,25.0,29.61,ENE,78,1.0,7.0,65,0.00,,,0.00,,2013-02-13 19:11:00,
2013-02-13 14:21:00,36.0,25.0,29.61,ENE,78,1.0,7.0,65,0.00,,,0.00,,2013-02-13 19:21:00,
2013-02-13 14:32:00,36.0,26.0,29.61,ESE,104,0.0,4.0,66,0.00,,,0.00,,2013-02-13 19:32:00,
2013-02-13 14:42:00,36.0,26.0,29.61,ESE,104,0.0,4.0,66,0.00,,,0.00,,2013-02-13 19:42:00,
2013-02-13 14:51:00,36.0,26.0,29.62,SE,142,0.0,3.0,67,0.00,,,0.00,,2013-02-13 19:51:00,
2013-02-13 15:02:00,35.0,27.0,29.60,NW,306,0.0,3.0,72,0.00,,,0.00,,2013-02-13 20:02:00,
2013-02-13 15:11:00,35.0,28.0,29.60,NW,306,3.0,5.0,75,0.00,,,0.00,,2013-02-13 20:11:00,
2013-02-13 15:21:00,35.0,28.0,29.60,NW,306,3.0,5.0,75,0.00,,,0.00,,2013-02-13 20:21:00,
2013-02-13 15:32:00,33.0,28.0,29.60,NNW,335,0.0,5.0,83,0.00,,,0.00,,2013-02-13 20:32:00,
2013-02-13 15:42:00,32.0,29.0,29.59,NNW,335,0.0,0.0,87,0.00,,,0.00,,2013-02-13 20:42:00,
2013-02-13 15:52:00,32.0,29.0,29.59,NNW,335,0.0,0.0,87,0.00,,,0.00,,2013-02-13 20:52:00,
2013-02-13 16:02:00,32.0,30.0,29.59,NNW,335,0.0,4.0,91,0.00,,,0.00,,2013-02-13 21:02:00,
2013-02-13 16:11:00,32.0,30.0,29.59,NNW,335,0.0,4.0,91,0.00,,,0.00,,2013-02-13 21:11:00,
2013-02-13 16:21:00,31.0,29.0,29.61,NW,316,0.0,4.0,91,0.00,,,0.00,,2013-02-13 21:21:00,
2013-02-13 16:32:00,31.0,29.0,29.59,NW,313,0.0,5.0,92,0.00,,,0.00,,2013-02-13 21:32:00,
2013-02-13 16:42:00,31.0,29.0,29.59,NW,313,0.0,5.0,92,0.00,,,0.00,,2013-02-13 21:42:00,
2013-02-13 16:52:00,31.0,29.0,29.60,NW,313,2.0,4.0,93,0.00,,,0.00,,2013-02-13 21:52:00,
2013-02-13 17:02:00,31.0,29.0,29.60,NW,313,0.0,0.0,93,0.00,,,0.00,,2013-02-13 22:02:00,
2013-02-13 17:11:00,31.0,29.0,29.60,NW,313,0.0,0.0,93,0.00,,,0.00,,2013-02-13 22:11:00,
2013-02-13 17:21:00,31.0,29.0,29.61,NW,313,0.0,0.0,93,0.00,,,0.00,,2013-02-13 22:21:00,
2013-02-13 17:32:00,31.0,29.0,29.60,NW,313,0.0,0.0,94,0.00,,,0.00,,2013-02-13 22:32:00,
2013-02-13 17:42:00,31.0,29.0,29.60,NW,313,0.0,0.0,94,0.00,,,0.00,,2013-02-13 22:42:00,
2013-02-13 17:51:00,31.0,29.0,29.61,NW,313,0.0,0.0,94,0.00,,,0.00,,2013-02-13 22:51:00,
2013-02-13 18:01:00,31.0,30.0,29.61,NW,313,0.0,0.0,95,0.00,,,0.00,,2013-02-13 23:01:00,
2013-02-13 18:11:00,31.0,30.0,29.61,NW,313,0.0,0.0,95,0.00,,,0.00,,2013-02-13 23:11:00,
2013-02-13 18:22:00,30.0,29.0,29.61,NW,313,0.0,0.0,96,0.00,,,0.00,,2013-02-13 23:22:00,
2013-02-13 18:32:00,30.0,29.0,29.62,NW,313,0.0,0.0,96,0.00,,,0.00,,2013-02-13 23:32:00,
2013-02-13 18:42:00,30.0,29.0,29.62,NW,313,0.0,0.0,96,0.00,,,0.00,,2013-02-13 23:42:00,
2013-02-13 18:52:00,30.0,29.0,29.62,NW,313,0.0,0.0,96,0.00,,,0.00,,2013-02-13 23:52:00,
2013-02-13 19:02:00,30.0,29.0,29.63,NW,313,0.0,0.0,97,0.00,,,0.00,,2013-02-14 00:02:00,
2013-02-13 19:11:00,30.0,29.0,29.63,NW,313,0.0,0.0,97,0.00,,,0.00,,2013-02-14 00:11:00,
2013-02-13 19:22:00,30.0,29.0,29.63,West,271,0.0,0.0,97,0.00,,,0.00,,2013-02-14 00:22:00,
2013-02-13 19:32:00,29.0,28.0,29.64,WNW,284,1.0,7.0,97,0.00,,,0.00,,2013-02-14 00:32:00,
2013-02-13 19:42:00,29.0,28.0,29.64,WNW,284,1.0,7.0,97,0.00,,,0.00,,2013-02-14 00:42:00,
2013-02-13 19:52:00,29.0,28.0,29.65,West,265,2.0,6.0,97,0.00,,,0.00,,2013-02-14 00:52:00,
2013-02-13 20:01:00,29.0,28.0,29.66,WNW,290,0.0,5.0,97,0.00,,,0.00,,2013-02-14 01:01:00,
2013-02-13 20:11:00,29.0,28.0,29.66,WNW,290,0.0,5.0,97,0.00,,,0.00,,2013-02-14 01:11:00,
2013-02-13 20:21:00,29.0,28.0,29.66,SW,223,0.0,5.0,97,0.00,,,0.00,,2013-02-14 01:21:00,
2013-02-13 20:32:00,28.0,28.0,29.67,West,276,2.0,9.0,98,0.00,,,0.00,,2013-02-14 01:32:00,
2013-02-13 20:41:00,28.0,28.0,29.67,West,276,2.0,9.0,98,0.00,,,0.00,,2013-02-14 01:41:00,
2013-02-13 20:51:00,28.0,27.0,29.67,WSW,244,2.0,11.0,97,0.00,,,0.00,,2013-02-14 01:51:00,
2013-02-13 21:02:00,27.0,27.0,29.68,WSW,238,0.0,9.0,98,0.00,,,0.00,,2013-02-14 02:02:00,
2013-02-13 21:11:00,27.0,27.0,29.68,WSW,253,4.0,7.0,98,0.00,,,0.00,,2013-02-14 02:11:00,
2013-02-13 21:21:00,27.0,27.0,29.68,WSW,253,4.0,7.0,98,0.00,,,0.00,,2013-02-14 02:21:00,
2013-02-13 21:32:00,27.0,27.0,29.69,South,169,0.0,11.0,98,0.00,,,0.00,,2013-02-14 02:32:00,
2013-02-13 21:42:00,27.0,27.0,29.69,South,169,0.0,11.0,98,0.00,,,0.00,,2013-02-14 02:42:00,
2013-02-13 21:51:00,27.0,27.0,29.69,South,169,0.0,11.0,98,0.00,,,0.00,,2013-02-14 02:51:00,
2013-02-13 22:02:00,27.0,27.0,29.70,SSW,209,0.0,6.0,98,0.00,,,0.00,,2013-02-14 03:02:00,
2013-02-13 22:11:00,27.0,27.0,29.70,SSW,209,0.0,6.0,98,0.00,,,0.00,,2013-02-14 03:11:00,
2013-02-13 22:22:00,27.0,27.0,29.71,West,267,4.0,11.0,98,0.00,,,0.00,,2013-02-14 03:22:00,
2013-02-13 22:32:00,27.0,27.0,29.71,NW,310,5.0,14.0,98,0.00,,,0.00,,2013-02-14 03:32:00,
2013-02-13 22:42:00,27.0,27.0,29.71,NW,310,5.0,14.0,98,0.00,,,0.00,,2013-02-14 03:42:00,
2013-02-13 22:51:00,27.0,27.0,29.71,West,261,8.0,15.0,98,0.00,,,0.00,,2013-02-14 03:51:00,
2013-02-13 23:01:00,27.0,27.0,29.72,NW,307,10.0,18.0,99,0.00,,,0.00,,2013-02-14 04:01:00,
2013-02-13 23:12:00,27.0,27.0,29.72,NW,308,9.0,14.0,98,0.00,,,0.00,,2013-02-14 04:12:00,
2013-02-13 23:21:00,27.0,27.0,29.72,NW,308,9.0,14.0,98,0.00,,,0.00,,2013-02-14 04:21:00,
2013-02-13 23:32:00,26.0,26.0,29.72,WNW,297,7.0,12.0,99,0.00,,,0.00,,2013-02-14 04:32:00,
2013-02-13 23:42:00,26.0,26.0,29.72,WNW,297,7.0,12.0,99,0.00,,,0.00,,2013-02-14 04:42:00,
2013-02-13 23:51:00,26.0,26.0,29.73,West,267,11.0,14.0,98,0.00,,,0.00,,2013-02-14 04:51:00,